Powrót do katalogu

STARLINK-37440

AktywnyŁącznośćVLEO
NORAD 69189·PAYLOAD·🇺🇸 United States

Wystrzelony May 25, 2026 z Cape Canaveral Space Force Station

Loading…

Następne Przeloty (najbliższe 24 godziny)

TLE

ŚwieżeSource: CelesTrak SupGP

Epoka: Sep 15, 2026, 03:13 UTC

1 69189C 26114H   26258.13451389  .00048372  00000+0  14292-2 0  2585
2 69189  53.1561 138.9860 0001231  82.6825 144.9629 15.34366318    15

Śledź STARLINK-37440 w czasie rzeczywistym z AllMySat

Download on the App Store